Theta_e
318 322 323 325 331 336 341 337 335 342 342 339 338 337 337 351 354 365 349 346 352 352 348 346 348 349 348 345 338 339 338 334 336 336 335 336 335 336 338 341 343 344 340 332 323 321 317 319 322
317 321 323 327 334 340 342 340 344 343 339 338 337 336 334 352 351 350 344 349 352 352 348 347 348 349 348 346 341 341 342 335 336 337 335 335 335 335 337 339 339 336 330 322 321 318 316 318 323
319 323 324 328 333 337 341 344 344 341 339 338 338 336 339 346 350 349 344 349 352 352 352 347 346 347 348 347 346 344 344 338 335 337 336 335 335 336 336 338 336 331 322 321 319 317 316 319 325
321 323 324 327 331 334 336 339 341 338 338 337 337 337 338 340 345 349 346 347 352 351 352 347 344 345 346 346 346 346 345 344 336 337 337 336 337 337 337 337 332 326 323 321 318 318 317 316 320
319 322 325 328 330 332 334 339 336 336 337 337 336 337 341 343 345 347 346 347 348 349 354 348 343 344 344 344 345 346 346 346 340 337 338 338 338 337 337 336 332 326 323 320 318 318 318 317 316
320 323 324 327 329 331 332 332 336 336 335 335 335 336 342 342 345 347 346 348 347 350 353 347 342 342 342 342 343 344 347 346 345 338 339 341 339 336 334 332 326 325 325 323 320 319 319 319 319
319 322 324 326 326 327 328 330 330 331 333 334 333 334 337 340 345 346 346 347 347 351 356 349 341 342 341 341 342 344 346 347 346 341 340 344 340 336 333 328 324 323 322 322 321 320 320 320 319
319 319 320 323 325 325 327 329 328 328 329 329 329 331 332 331 335 346 346 346 347 347 357 352 348 345 340 341 342 345 347 347 347 344 343 345 341 336 333 326 322 321 321 321 321 319 319 319 318
320 319 319 320 321 323 324 323 327 328 328 328 327 328 329 327 331 337 343 344 344 346 354 351 348 348 347 348 341 344 347 348 347 346 345 345 341 335 332 326 326 321 320 319 319 319 319 319 320
320 320 320 321 322 321 322 323 323 323 324 325 325 325 326 327 328 333 340 343 343 345 350 352 348 347 346 345 347 341 346 347 347 347 347 346 343 343 341 335 332 336 323 320 319 320 321 323 326
320 320 320 321 322 322 322 321 322 322 322 322 323 325 326 327 329 330 335 340 344 343 344 352 350 348 347 345 346 343 346 346 348 350 350 345 342 341 339 338 336 331 331 323 322 323 324 337 343
319 320 320 320 322 321 321 321 321 321 321 321 321 322 323 324 327 328 330 336 341 342 343 352 354 350 349 347 348 348 343 343 344 344 345 346 342 339 340 342 341 339 336 327 336 339 342 343 347
319 319 320 320 320 321 320 320 320 320 321 320 320 321 321 322 324 324 326 328 330 337 342 342 347 356 351 351 349 349 343 342 341 341 343 347 342 343 341 340 344 343 338 338 338 341 342 342 347
320 320 320 320 320 320 319 319 319 319 320 320 321 321 321 322 323 324 324 325 328 330 341 343 340 331 356 352 353 349 346 342 340 341 344 344 347 341 342 342 342 342 340 342 340 340 338 342 348
320 319 319 320 319 319 319 319 319 320 320 320 321 322 322 322 322 325 324 325 325 331 341 343 340 333 338 356 351 353 351 343 342 342 343 345 345 343 343 343 342 341 343 340 342 340 338 345 347
319 319 318 319 320 319 319 318 320 321 321 320 321 321 322 323 323 323 323 323 324 325 325 344 348 355 356 359 358 355 356 349 347 343 343 344 342 345 346 345 342 341 340 340 339 338 339 339 339
320 319 319 319 320 320 319 319 320 321 321 321 321 321 322 322 325 322 322 323 323 324 326 328 335 343 357 357 358 358 355 354 352 349 345 349 347 343 347 345 346 345 342 341 339 341 339 340 340
318 319 319 319 320 320 319 318 319 319 321 321 321 321 322 323 324 323 322 322 323 324 326 328 329 337 353 358 358 359 359 356 354 353 350 346 346 351 343 352 346 347 346 347 346 346 343 341 340
318 319 319 320 320 320 319 320 320 320 320 321 322 323 324 324 324 323 322 322 323 323 325 326 329 328 331 354 355 358 357 357 355 354 354 352 351 352 352 350 351 350 350 349 348 347 344 340 341
319 319 319 319 319 319 319 319 320 321 322 322 322 324 324 325 325 325 323 323 323 323 324 326 326 330 330 327 350 354 355 353 356 354 352 353 352 351 351 350 350 348 351 352 349 347 345 343 342
319 319 319 319 319 320 320 320 321 321 321 322 323 324 324 324 325 327 328 326 324 325 325 323 323 328 331 335 331 336 347 348 352 353 352 351 352 353 352 351 351 351 350 352 351 350 345 345 346
319 319 319 319 319 319 320 321 323 323 323 324 324 324 323 323 324 325 326 328 323 323 323 324 324 327 328 329 336 336 338 347 348 348 349 352 350 351 353 352 353 353 350 351 350 348 347 344 348
319 318 318 318 319 320 320 321 320 322 322 324 325 325 325 325 325 326 326 325 324 323 323 324 327 326 326 331 331 334 337 337 337 339 346 343 349 352 351 352 351 351 351 350 349 348 347 346 348
319 318 319 319 319 322 320 321 322 324 325 326 327 326 325 324 325 324 323 322 322 323 323 324 324 326 329 331 333 332 335 338 340 341 344 346 342 350 354 353 352 348 350 349 350 348 349 349 350
319 320 321 323 324 325 323 324 326 327 327 326 325 325 326 325 324 323 322 322 322 321 322 322 324 323 324 326 329 331 333 335 337 337 340 341 341 341 345 352 352 351 347 349 347 346 346 351 351
320 321 322 325 326 324 326 328 327 327 326 327 326 325 325 324 323 322 322 321 321 320 321 322 322 322 324 323 325 328 331 334 334 334 334 336 337 336 338 339 341 337 337 329 339 339 341 341 347
320 321 321 325 328 329 326 326 326 328 327 327 325 324 325 325 324 322 321 320 320 320 320 321 320 321 322 322 322 324 328 331 333 335 333 333 335 337 338 336 338 340 333 326 320 328 328 321 331
323 323 325 327 337 331 326 327 327 328 327 327 325 324 323 323 322 321 321 321 320 320 320 320 320 320 320 319 321 323 323 324 330 331 334 336 338 338 336 339 344 336 329 326 324 333 332 325 324
323 325 326 327 326 332 330 327 326 327 328 328 326 324 323 322 321 321 320 319 318 317 317 317 319 319 319 319 319 318 320 322 325 329 329 334 336 338 339 342 342 341 333 331 331 332 329 330 322
322 323 324 332 330 329 331 333 326 326 324 325 324 323 322 321 319 318 318 318 316 316 316 317 318 318 318 318 318 319 319 319 321 324 328 330 332 333 336 339 339 337 333 331 329 328 323 321 319
Wind_Speed
18 19 19 16 6 7 15 20 23 5 9 3 9 6 15 17 9 5 14 22 26 26 27 26 25 24 21 20 20 19 18 18 18 16 15 14 13 12 12 12 11 9 8 7 7 7 7 7 7
18 18 20 10 10 12 13 16 5 9 12 10 5 5 8 17 17 14 14 23 24 24 26 25 25 25 22 20 19 18 18 18 18 16 15 14 13 12 11 10 9 7 6 7 7 7 7 7 6
17 16 9 6 12 14 15 11 6 8 5 3 4 3 7 10 11 9 20 23 24 23 23 24 25 24 22 21 20 18 18 18 19 17 15 14 12 11 10 9 7 6 6 6 6 5 5 5 5
9 9 7 10 17 20 21 8 9 4 4 3 8 1 8 12 9 17 17 21 20 21 20 23 24 23 22 20 20 20 19 18 19 17 15 14 12 10 9 7 7 6 6 5 5 4 3 3 2
11 6 12 15 17 20 12 2 8 8 3 0 3 9 13 11 9 16 14 17 18 21 21 21 23 22 20 19 19 20 21 21 19 18 16 14 12 10 9 8 6 5 5 5 5 4 3 2 1
9 9 11 13 18 19 11 7 1 8 15 1 1 7 13 13 12 14 14 14 16 24 21 21 24 22 20 18 17 18 22 23 21 20 17 14 13 12 10 9 8 7 5 4 4 3 3 2 2
14 12 17 18 17 21 21 7 10 10 12 3 9 1 8 13 10 12 12 12 18 21 22 20 26 23 20 18 16 16 20 23 22 20 18 14 13 12 11 10 10 9 7 6 5 4 4 4 4
12 12 22 19 18 22 18 17 11 8 14 10 5 3 7 8 3 7 11 12 17 17 18 18 22 22 22 20 17 16 18 22 22 20 19 17 14 12 12 12 11 10 10 9 7 6 5 6 6
15 12 15 20 18 17 18 10 14 7 11 7 1 9 7 6 4 10 13 16 18 17 20 19 21 22 20 18 21 19 19 21 22 21 20 18 16 16 14 13 12 13 13 11 9 8 7 7 9
14 12 20 14 20 16 17 14 13 2 16 8 12 12 15 4 9 12 14 12 16 20 22 23 24 26 23 22 21 23 21 23 24 23 22 20 16 15 15 13 15 15 13 12 11 10 9 10 10
16 17 17 18 17 6 9 11 5 8 11 9 14 14 16 14 14 9 16 18 20 21 24 31 27 26 24 22 24 22 20 21 21 21 20 20 16 18 16 21 18 17 16 16 14 12 12 8 8
19 20 19 22 10 2 12 11 12 12 15 16 14 16 10 11 8 7 15 17 21 19 13 22 16 26 21 21 24 20 23 23 22 25 24 20 23 21 20 19 18 17 17 17 18 13 11 9 11
20 19 20 17 18 9 10 14 16 16 15 11 12 13 9 9 10 18 12 14 14 14 6 11 21 5 18 21 22 23 25 26 25 26 28 26 26 22 22 22 19 22 18 17 17 19 15 14 13
16 19 17 19 15 13 15 17 16 17 15 15 13 14 10 12 12 15 10 12 9 2 7 21 25 27 25 28 19 22 25 24 27 26 29 31 25 27 26 24 21 19 20 21 19 18 17 15 15
16 18 12 16 20 16 16 19 19 16 17 15 16 15 15 15 18 16 18 15 15 5 13 22 25 27 26 28 32 20 19 25 27 27 29 33 30 30 28 27 26 25 18 22 19 20 20 15 16
13 15 16 19 20 20 18 19 18 20 21 18 13 13 13 13 12 11 15 14 11 5 10 17 30 33 35 29 23 23 16 22 24 28 28 34 34 29 27 27 29 31 30 25 25 22 20 24 23
14 14 20 22 21 22 21 20 15 20 6 13 13 12 14 14 9 13 15 10 5 7 6 9 9 9 26 27 21 21 23 22 20 23 27 23 33 35 28 30 26 27 31 31 33 27 27 25 27
17 19 19 17 14 13 14 14 15 14 12 12 12 13 12 11 13 16 16 16 14 1 5 7 11 12 5 18 22 19 22 23 24 24 24 30 29 31 38 25 31 26 32 28 27 26 25 23 20
20 21 16 14 13 15 18 14 14 12 15 15 16 16 15 13 13 10 13 13 11 6 2 5 10 14 14 10 16 19 21 24 26 28 28 29 30 31 31 32 30 31 28 34 32 28 27 24 21
18 18 17 17 19 16 16 17 15 18 19 17 16 13 13 14 13 12 13 14 13 13 13 9 10 8 12 18 16 19 21 26 25 27 29 27 32 35 36 34 33 35 30 31 32 31 25 26 28
16 15 16 19 19 19 17 16 16 20 19 18 17 14 13 12 11 11 10 12 15 11 8 4 10 11 10 13 20 19 25 26 20 26 35 34 32 34 38 37 37 36 39 34 35 28 31 26 29
19 16 19 19 17 14 17 16 18 19 20 22 21 19 16 13 11 9 10 8 10 6 7 8 10 8 8 12 15 20 20 18 25 26 22 31 41 42 40 40 38 42 37 35 34 38 35 32 23
18 17 17 19 16 16 19 13 15 16 17 18 16 16 14 13 9 10 9 12 9 7 8 10 13 17 10 5 11 15 17 19 21 23 30 35 30 38 41 42 47 41 40 37 37 37 37 36 29
8 14 18 15 15 16 19 18 17 17 18 17 17 14 13 9 13 8 9 4 2 6 7 9 15 14 12 9 11 14 16 19 20 22 23 21 31 26 40 41 42 47 41 43 35 39 38 37 36
14 12 10 14 14 15 21 18 15 14 12 10 7 7 14 11 8 6 6 2 5 5 5 9 8 13 14 15 15 15 15 16 18 22 23 25 25 24 25 44 45 42 27 39 41 38 41 44 37
16 11 10 19 15 18 22 14 14 15 16 15 10 5 13 10 7 6 2 2 3 6 4 6 8 15 13 18 19 15 13 16 19 19 23 27 27 28 32 36 31 31 38 24 37 36 40 19 31
11 11 14 16 15 15 15 23 20 10 13 18 9 7 7 9 8 4 4 5 6 8 6 7 9 9 11 20 24 20 17 18 19 22 27 30 29 28 33 39 37 25 32 40 59 46 26 25 50
12 12 6 4 5 13 13 13 10 14 12 9 7 2 5 6 2 4 6 7 8 10 8 13 11 9 8 14 18 17 21 24 21 20 22 25 27 30 35 35 29 24 32 38 41 32 29 17 59
16 11 11 11 12 7 11 10 2 10 13 13 4 4 6 6 8 10 11 12 13 18 19 21 12 10 12 14 14 16 18 23 26 23 21 23 25 26 29 30 27 30 25 26 23 19 22 11 9
19 19 17 6 10 10 12 8 14 9 7 7 10 8 5 7 10 11 11 14 13 15 15 18 14 8 12 15 18 14 13 18 24 25 24 21 24 23 25 25 19 24 23 23 21 21 8 13 16
Wind_Direction
308 308 304 283 253 225 251 246 254 168 277 341 38 349 342 72 32 65 142 117 123 141 152 152 154 158 160 162 161 161 159 162 161 157 154 150 143 139 138 137 133 130 127 120 113 108 104 106 109
303 303 290 262 244 247 233 250 352 165 44 33 21 282 278 80 91 115 120 124 130 146 151 156 158 161 165 167 168 167 167 168 168 163 161 158 153 151 149 146 139 137 134 126 119 116 117 120 123
294 281 283 245 243 245 260 44 25 340 296 271 255 36 352 55 101 93 125 130 131 145 149 164 162 165 169 173 175 176 177 176 174 170 166 165 161 160 158 155 147 146 139 127 121 120 126 131 134
278 269 243 262 260 250 257 322 249 282 208 5 337 37 96 57 44 115 134 140 138 146 154 167 166 168 170 179 182 181 184 185 182 178 173 170 169 168 165 163 154 149 137 129 127 124 129 132 138
242 272 255 250 245 263 281 159 38 292 306 319 100 273 97 81 88 112 136 144 149 145 157 168 172 173 175 180 188 188 187 189 188 185 182 176 175 173 169 167 157 153 148 151 151 148 153 152 162
244 226 256 249 247 255 268 296 141 266 300 176 247 274 103 129 129 134 145 149 149 137 151 169 179 179 180 183 190 191 190 191 191 190 188 184 183 182 179 176 170 167 165 169 172 169 182 191 220
243 239 246 245 257 275 287 186 253 245 271 274 28 165 116 97 94 131 146 153 139 143 147 168 178 184 185 188 192 194 191 193 194 192 192 191 191 191 187 185 182 180 181 187 192 201 218 231 235
236 246 256 246 253 252 250 275 233 226 264 87 59 257 82 74 109 152 167 166 151 159 148 161 173 182 187 190 195 197 192 193 198 199 198 197 196 197 199 195 195 193 191 195 201 211 228 245 254
222 246 247 250 257 265 261 262 250 208 262 301 278 235 131 103 203 221 207 172 169 166 153 166 176 183 183 189 194 195 195 199 203 204 206 204 203 203 206 208 203 202 201 202 209 219 230 248 261
227 230 244 246 248 264 260 265 278 222 250 239 268 268 281 245 240 231 206 192 190 168 169 173 181 183 185 188 196 195 196 202 205 208 210 207 195 212 202 207 212 222 220 215 211 215 228 247 259
219 243 247 244 256 266 307 279 272 294 262 260 264 245 239 238 227 238 241 220 195 202 187 170 179 182 186 197 191 199 193 198 205 202 206 211 202 205 201 207 209 220 224 223 216 219 231 230 247
228 237 246 272 277 232 265 255 267 241 257 260 254 273 301 320 314 248 251 240 215 217 182 135 161 172 193 198 184 191 193 198 199 204 202 204 197 201 203 205 213 218 222 224 226 227 216 227 231
232 240 248 246 265 252 257 254 253 247 239 241 254 274 256 275 287 292 315 327 358 23 125 162 140 187 200 221 194 188 197 198 199 202 200 196 204 202 205 203 209 212 208 217 212 228 225 214 224
234 245 253 269 249 255 248 250 248 248 251 250 231 236 214 240 237 252 273 292 308 347 195 168 169 176 215 222 226 201 200 203 197 202 200 203 202 201 204 205 217 220 202 210 204 216 221 224 227
255 250 250 246 255 236 243 247 247 253 258 225 239 233 237 244 230 218 218 235 264 279 179 171 179 200 200 223 225 231 207 207 202 204 204 206 204 206 205 203 210 221 212 219 207 213 213 212 225
261 244 258 248 236 233 237 253 251 239 228 222 236 233 254 237 252 243 243 241 262 313 317 183 186 185 195 204 208 230 233 217 223 212 212 213 212 209 215 207 211 213 212 220 222 213 209 218 225
233 248 244 246 249 225 215 243 253 248 303 198 225 237 246 245 219 251 265 266 276 277 299 272 287 284 195 198 200 219 227 227 229 231 212 206 213 213 213 215 218 220 220 222 220 225 218 214 220
241 224 238 261 242 194 233 246 243 270 200 233 233 255 256 245 238 218 214 243 251 340 6 346 292 285 264 201 202 212 218 225 230 229 225 227 225 211 213 219 224 227 220 221 217 215 219 223 228
270 285 297 290 236 198 214 229 251 264 262 218 216 217 227 227 249 230 229 229 212 175 181 264 268 278 272 257 211 220 228 220 221 228 226 225 213 208 214 221 233 232 228 219 214 211 215 218 220
254 266 272 282 291 289 280 267 256 256 259 261 258 242 242 231 222 233 231 211 199 196 208 216 243 267 262 262 260 242 226 222 224 223 227 227 218 215 217 225 229 233 230 225 215 208 204 210 209
258 264 272 273 280 281 274 262 268 262 256 259 262 257 239 257 246 226 216 213 194 185 175 270 283 259 255 253 263 278 257 261 257 233 215 218 219 216 220 227 228 230 226 221 218 215 207 206 208
273 246 253 261 266 266 266 271 256 252 242 229 231 230 234 230 255 252 238 83 67 27 342 324 297 278 262 267 256 266 274 260 249 251 247 224 217 215 219 223 224 227 229 226 219 213 209 209 207
264 258 269 284 281 280 262 265 266 263 257 253 240 227 220 205 212 91 69 53 39 1 323 326 329 277 253 278 292 295 290 279 273 267 246 256 231 219 219 221 225 226 227 232 223 214 212 212 212
321 299 283 261 266 257 259 256 260 261 262 259 234 212 200 191 103 97 85 65 335 2 347 355 338 346 335 307 289 275 279 285 291 292 295 286 251 238 220 226 226 224 223 224 235 223 209 210 213
269 255 265 253 242 248 243 244 245 274 335 330 311 70 104 104 122 111 94 11 17 340 336 352 333 334 323 319 304 295 289 283 281 283 282 277 281 275 252 230 230 228 235 230 228 239 226 210 202
283 276 267 281 285 291 314 290 292 329 310 300 261 126 126 143 147 118 151 260 275 294 330 307 310 315 326 317 302 290 290 291 285 283 275 275 278 277 277 284 278 226 231 287 279 279 261 266 223
290 270 293 307 293 271 262 273 272 1 352 351 180 185 139 102 76 42 296 303 331 305 295 301 297 281 315 318 318 305 295 270 270 276 276 279 280 281 278 279 278 256 220 226 217 245 273 302 276
281 303 316 247 267 272 271 292 298 353 330 15 329 357 284 66 65 275 298 313 307 304 288 262 264 297 281 289 305 325 318 312 288 275 281 278 277 278 277 281 283 230 216 221 213 232 240 257 269
267 224 246 256 262 255 272 271 360 39 354 344 334 323 17 336 326 303 313 313 323 329 317 305 282 275 292 293 277 292 311 317 315 305 273 281 285 285 276 277 270 261 221 198 194 200 197 171 256
267 265 260 235 237 240 259 264 288 70 17 343 329 347 323 305 295 297 303 307 312 297 301 306 300 292 294 301 307 286 282 301 308 311 315 293 285 284 280 277 276 256 225 207 211 196 203 203 161